Location: Winthrop
(48.4780°N, 120.1850°W)
Time: 23:37:19
(UTC-07:00)

S-56A Canister/Altair - Pass Details

Date: 01 June 2023
Orbit: 640 x 2489 km, 38.9° (Epoch: 29 September)

Event Time Altitude Azimuth Distance (km) Brightness Sun altitude
Rises 01:51:35 0° 265° (W) 6,091 11.9 -18.5°
Reaches altitude 10° 01:55:37 10° 262° (W) 5,139 11.5 -18.3°
Maximum altitude 02:10:03 55° 191° (S) 2,700 9.9 -17.7°
Drops below altitude 10° 02:22:06 10° 118° (ESE) 4,348 11.3 -17.0°
Sets 02:25:13 0° 114° (ESE) 5,126 11.7 -16.9°
